TimeIST,TemperatureF,Dew PointF,Humidity,Sea Level PressureIn,VisibilityMPH,Wind Direction,Wind SpeedMPH,Gust SpeedMPH,PrecipitationIn,Events,Conditions,WindDirDegrees,DateUTC
12:00 AM,50.0,42.8,76,29.92,6.2,West,17.3,-,N/A,,Partly Cloudy,280,2013-09-19 23:00:00
12:30 AM,50.0,42.8,76,29.92,6.2,West,12.7,-,N/A,,Partly Cloudy,270,2013-09-19 23:30:00
1:00 AM,48.2,42.8,82,29.95,6.2,West,12.7,-,N/A,,Scattered Clouds,270,2013-09-20 00:00:00
1:30 AM,48.2,42.8,82,29.95,6.2,West,12.7,-,N/A,,Scattered Clouds,270,2013-09-20 00:30:00
2:00 AM,48.2,42.8,82,29.98,6.2,WSW,8.1,-,N/A,,Mostly Cloudy,250,2013-09-20 01:00:00
2:30 AM,50.0,42.8,76,29.98,6.2,WSW,5.8,-,N/A,,Mostly Cloudy,240,2013-09-20 01:30:00
3:00 AM,50.0,44.6,82,29.98,6.2,SW,5.8,-,N/A,,Mostly Cloudy,230,2013-09-20 02:00:00
3:30 AM,50.0,44.6,82,29.98,6.2,WSW,6.9,-,N/A,,Mostly Cloudy,240,2013-09-20 02:30:00
4:00 AM,51.8,44.6,76,29.98,6.2,WSW,8.1,-,N/A,,Mostly Cloudy,240,2013-09-20 03:00:00
4:30 AM,51.8,44.6,76,29.98,6.2,WSW,8.1,-,N/A,,Mostly Cloudy,240,2013-09-20 03:30:00
5:00 AM,50.0,44.6,82,30.01,6.2,WSW,8.1,-,N/A,,Mostly Cloudy,240,2013-09-20 04:00:00
5:30 AM,51.8,44.6,76,30.01,6.2,WSW,8.1,-,N/A,,Mostly Cloudy,250,2013-09-20 04:30:00
6:00 AM,50.0,44.6,82,30.01,6.2,WSW,5.8,-,N/A,,Mostly Cloudy,250,2013-09-20 05:00:00
6:30 AM,50.0,44.6,82,30.01,6.2,WSW,4.6,-,N/A,,Mostly Cloudy,240,2013-09-20 05:30:00
7:00 AM,51,44,70,30.03,19,WSW,6.7,,,,Mostly Cloudy,240,2013-09-20 06:00:00
7:00 AM,50.0,44.6,82,30.01,6.2,WSW,5.8,-,N/A,,Mostly Cloudy,240,2013-09-20 06:00:00
7:30 AM,50.0,44.6,82,30.01,6.2,SW,6.9,-,N/A,,Mostly Cloudy,220,2013-09-20 06:30:00
8:00 AM,51.8,42.8,71,30.04,6.2,SW,5.8,-,N/A,,Mostly Cloudy,220,2013-09-20 07:00:00
8:30 AM,51.8,44.6,76,30.04,6.2,SSW,5.8,-,N/A,,Mostly Cloudy,210,2013-09-20 07:30:00
9:00 AM,53.6,44.6,72,30.04,6.2,SW,6.9,-,N/A,,Mostly Cloudy,230,2013-09-20 08:00:00
9:30 AM,53.6,44.6,72,30.04,6.2,SW,6.9,-,N/A,,Mostly Cloudy,220,2013-09-20 08:30:00
10:00 AM,53.6,44.6,72,30.04,6.2,SW,6.9,-,N/A,,Mostly Cloudy,230,2013-09-20 09:00:00
10:30 AM,55.4,46.4,72,30.04,6.2,SW,8.1,-,N/A,,Mostly Cloudy,220,2013-09-20 09:30:00
11:00 AM,57.2,46.4,67,30.04,6.2,SW,11.5,-,N/A,,Mostly Cloudy,230,2013-09-20 10:00:00
11:30 AM,57.2,44.6,63,30.06,6.2,WSW,12.7,-,N/A,,Mostly Cloudy,240,2013-09-20 10:30:00
12:00 PM,57.2,44.6,63,30.06,6.2,WSW,11.5,-,N/A,,Mostly Cloudy,240,2013-09-20 11:00:00
12:30 PM,57.2,46.4,67,30.06,6.2,WSW,11.5,-,N/A,,Mostly Cloudy,240,2013-09-20 11:30:00
1:00 PM,57,45,53,30.08,25,WSW,15.7,,,,Mostly Cloudy,250,2013-09-20 12:00:00
1:00 PM,57.2,44.6,63,30.06,6.2,WSW,15.0,-,N/A,,Mostly Cloudy,240,2013-09-20 12:00:00
1:30 PM,57.2,46.4,67,30.06,6.2,SW,11.5,-,N/A,,Mostly Cloudy,230,2013-09-20 12:30:00
2:00 PM,59.0,44.6,59,30.06,6.2,SSW,12.7,-,N/A,,Mostly Cloudy,210,2013-09-20 13:00:00
2:30 PM,59.0,44.6,59,30.06,6.2,SW,12.7,-,N/A,,Mostly Cloudy,230,2013-09-20 13:30:00
3:00 PM,60.8,44.6,55,30.06,6.2,SSW,11.5,-,N/A,,Mostly Cloudy,200,2013-09-20 14:00:00
3:30 PM,60.8,46.4,59,30.06,6.2,SSW,10.4,-,N/A,,Mostly Cloudy,210,2013-09-20 14:30:00
4:00 PM,60.8,44.6,55,30.06,6.2,SW,10.4,-,N/A,,Mostly Cloudy,220,2013-09-20 15:00:00
4:30 PM,60.8,44.6,55,30.06,6.2,SW,10.4,-,N/A,,Mostly Cloudy,230,2013-09-20 15:30:00
5:00 PM,60.8,46.4,59,30.06,6.2,SW,10.4,-,N/A,,Mostly Cloudy,220,2013-09-20 16:00:00
5:30 PM,59.0,46.4,63,30.06,6.2,SW,11.5,-,N/A,,Mostly Cloudy,230,2013-09-20 16:30:00
6:00 PM,59.0,46.4,63,30.06,6.2,SW,11.5,-,N/A,,Mostly Cloudy,230,2013-09-20 17:00:00
6:30 PM,59.0,44.6,59,30.06,6.2,SW,10.4,-,N/A,,Mostly Cloudy,220,2013-09-20 17:30:00
7:00 PM,57,46,56,30.07,25,SW,8.9,,,,Scattered Clouds,230,2013-09-20 18:00:00
7:00 PM,57.2,44.6,63,30.06,6.2,SW,9.2,-,N/A,,Mostly Cloudy,230,2013-09-20 18:00:00
7:30 PM,55.4,44.6,67,30.06,6.2,SSW,6.9,-,N/A,,Mostly Cloudy,210,2013-09-20 18:30:00
8:00 PM,55.4,44.6,67,30.04,6.2,South,4.6,-,N/A,,Mostly Cloudy,190,2013-09-20 19:00:00
8:30 PM,53.6,44.6,72,30.06,6.2,SSW,4.6,-,N/A,,Mostly Cloudy,200,2013-09-20 19:30:00
9:00 PM,53.6,46.4,77,30.06,6.2,WSW,4.6,-,N/A,,Scattered Clouds,240,2013-09-20 20:00:00
9:30 PM,53.6,46.4,77,30.06,6.2,SW,6.9,-,N/A,,Scattered Clouds,230,2013-09-20 20:30:00
10:00 PM,53.6,48.2,82,30.06,6.2,WSW,5.8,-,N/A,,Scattered Clouds,250,2013-09-20 21:00:00
10:30 PM,53.6,48.2,82,30.06,6.2,SW,5.8,-,N/A,,Scattered Clouds,230,2013-09-20 21:30:00
11:00 PM,53.6,48.2,82,30.06,6.2,Variable,2.3,-,N/A,,Mostly Cloudy,0,2013-09-20 22:00:00
11:30 PM,55.4,48.2,77,30.06,6.2,Variable,2.3,-,N/A,,Mostly Cloudy,0,2013-09-20 22:30:00